Find Starlink 32099

NORAD ID: 59697 Int'l Des: 2024-086 Owner: SPXS Country: US Constellation: starlink operational
LEOCIRCULAR

現在のビュー

3D地球を読み込み中...

About Starlink 32099

Starlink 32099 (NORAD 59697) is a starlink constellation satellite (v2 mini) launched May 8, 2024 by SPXS of US. It operates in LEO, CIRCULAR orbit with a mass of 730.00 kg.

次回通過

Passes for default location (London). Set your location on the main map for personalized predictions.

高度履歴

Loading altitude history...

軌道要素

1 59697U 24086R 26263.07678083 -.00005330 00000-0 -18436-3 0 9992
2 59697 42.9930 41.8913 0000441 3.3526 356.7328 15.27570772133845
Epoch: Sep 20, 2026 • Age: 14 hours

現在のステータス

高度 482.0 km
遠地点 / 近地点 N/A
速度 7.63 km/s
衛星直下点 17.03°N, 176.9°E
打ち上げ日 May 8, 2024
運用期間 2.3 years
タイプ internet

技術仕様

分類 Payload
質量 730.00 kg
乾燥質量 700.00 kg
長さ 0.30 m
スパン 29.00 m
形状 ? Box + pan
製造者 SPXS
バスタイプ Starlink V2M
フェーズステータス In Orbit
所有者/国 SPXS/US

Most Searched